Port Penn DE-VFC DE USA current weather conditions

sailwx.info

Wind from 349 at 0 knots gusting 2

Air temperature 23.0° C
Dewpoint 16.9° C

Last reported at 2020-Aug-15 04:05 UTC.
Time now 2020-Aug-15 04:50 UTC

Location: N 39°31' W 075°35'.
View on Google Maps.

See reports from other nearby stations

  
Tides and Currents Weather Stations Pressure Air Temp Water Temp Dewpoint Dewpoint Depression Visibility Wind Speed Wind Dir Waves Ship Positions
date/time (UTC)wind fromknots sea level pressurealtimeterstation pressurevisibilityair tempwater tempwave heightnotes
2020-Aug-15 04:05 349 0 gusting 2 23.0
2020-Aug-15 04:00 357 1 gusting 2 23.0
2020-Aug-15 03:55 357 1 gusting 1 22.3
2020-Aug-15 03:50 343 0 gusting 1 22.0
2020-Aug-15 03:45 324 0 gusting 1 21.8
2020-Aug-15 03:40 290 0 gusting 0 21.8
2020-Aug-15 03:35 283 0 gusting 0 21.6
2020-Aug-15 03:30 283 0 gusting 1 21.4
2020-Aug-15 03:25 283 0 gusting 1 21.5
2020-Aug-15 03:20 273 0 gusting 1 21.5
2020-Aug-15 03:15 286 0 gusting 1 21.2
2020-Aug-15 03:10 340 0 gusting 0 21.0
2020-Aug-15 03:05 20.9
2020-Aug-15 03:00 340 0 gusting 0 20.9
2020-Aug-15 02:55 340 0 gusting 0 21.1
2020-Aug-15 02:50 340 0 gusting 0 21.3
2020-Aug-15 02:45 21.5
2020-Aug-15 02:40 340 0 gusting 0 21.8
2020-Aug-15 02:35 340 0 gusting 0 22.1
2020-Aug-15 02:30 340 0 gusting 0 22.4
2020-Aug-15 02:25 155 0 gusting 0 22.7
2020-Aug-15 02:20 143 0 gusting 1 22.9
2020-Aug-15 02:15 185 0 gusting 1 22.6
2020-Aug-15 02:10 034 0 gusting 2 22.4
2020-Aug-15 02:05 256 0 gusting 1 22.0
2020-Aug-15 02:00 312 0 gusting 0 22.7
2020-Aug-15 01:55 357 0 gusting 2 22.7
2020-Aug-15 01:50 105 0 gusting 0 22.1
2020-Aug-15 01:45 105 0 gusting 0 22.3
2020-Aug-15 01:40 105 0 gusting 0 22.5
2020-Aug-15 01:35 110 0 gusting 1 22.7
2020-Aug-15 01:30 141 0 gusting 0 22.8
2020-Aug-15 01:25 23.5
2020-Aug-15 01:20 147 0 gusting 1 24.0
2020-Aug-15 01:15 134 0 gusting 2 24.4
2020-Aug-15 01:10 113 0 gusting 2 24.5
2020-Aug-15 01:05 109 1 gusting 3 24.5
2020-Aug-15 01:00 126 1 gusting 3 24.5
2020-Aug-15 00:55 113 1 gusting 3 24.6
2020-Aug-15 00:50 117 0 gusting 1 24.6
2020-Aug-15 00:45 130 0 gusting 1 24.6
2020-Aug-15 00:40 047 0 gusting 1 24.7
2020-Aug-15 00:35 016 0 gusting 1 24.6
2020-Aug-15 00:30 228 0 gusting 0 24.8
2020-Aug-15 00:25 162 0 gusting 0 25.0
2020-Aug-15 00:20 090 0 gusting 1 25.0
2020-Aug-15 00:15 142 0 gusting 1 25.2
2020-Aug-15 00:10 126 0 gusting 1 25.1
2020-Aug-15 00:05 161 0 gusting 1 25.2
2020-Aug-15 00:00 135 0 gusting 0 25.6
2020-Aug-14 23:55 055 0 gusting 2 25.8
2020-Aug-14 23:50 118 0 gusting 2 26.0
2020-Aug-14 23:45 127 0 gusting 2 26.3
2020-Aug-14 23:40 080 0 gusting 2 26.5
2020-Aug-14 23:35 107 0 gusting 2 26.5
2020-Aug-14 23:30 131 0 gusting 2 26.8
2020-Aug-14 23:25 056 0 gusting 2 27.0
2020-Aug-14 23:20 087 0 gusting 3 27.1
2020-Aug-14 23:15 100 0 gusting 3 27.3
2020-Aug-14 23:10 111 0 gusting 2 27.7
2020-Aug-14 23:05 064 0 gusting 1 27.6
2020-Aug-14 23:00 093 1 gusting 3 27.6
2020-Aug-14 22:55 120 0 gusting 3 27.9
2020-Aug-14 22:50 013 1 gusting 2 28.0
2020-Aug-14 22:45 063 0 gusting 3 28.2
2020-Aug-14 22:40 053 0 gusting 3 28.3
2020-Aug-14 22:35 032 0 gusting 2 28.4
2020-Aug-14 22:30 040 1 gusting 3 28.4
2020-Aug-14 22:25 100 1 gusting 3 28.4
2020-Aug-14 22:20 029 0 gusting 4 28.3
2020-Aug-14 22:15 074 1 gusting 4 28.3
2020-Aug-14 22:10 293 0 gusting 4 28.1
2020-Aug-14 22:05 057 2 gusting 9 27.9
2020-Aug-14 22:00 046 1 gusting 4 28.1
2020-Aug-14 21:55 354 1 gusting 4 28.4
2020-Aug-14 21:50 027 1 gusting 6 28.5
2020-Aug-14 21:45 038 1 gusting 6 28.6
2020-Aug-14 21:40 105 1 gusting 8 28.7
2020-Aug-14 21:35 048 1 gusting 6 28.7
2020-Aug-14 21:30 098 2 gusting 6 28.8
2020-Aug-14 21:25 094 2 gusting 6 29.2
2020-Aug-14 21:20 049 0 gusting 4 29.4
2020-Aug-14 21:15 030 1 gusting 3 29.4
2020-Aug-14 21:10 021 1 gusting 5 29.4
2020-Aug-14 21:05 023 1 gusting 3 29.3
2020-Aug-14 21:00 039 2 gusting 6 28.9
2020-Aug-14 20:55 069 2 gusting 8 29.0
2020-Aug-14 20:50 038 2 gusting 6 29.3
2020-Aug-14 20:45 025 1 gusting 4 29.2
2020-Aug-14 20:40 042 1 gusting 3 28.6
2020-Aug-14 20:35 069 1 gusting 5 28.0
2020-Aug-14 20:30 047 1 gusting 5 28.3
2020-Aug-14 20:25 061 1 gusting 6 28.1
2020-Aug-14 20:20 039 1 gusting 4 28.1
2020-Aug-14 20:15 041 1 gusting 5 28.0
2020-Aug-14 20:10 065 2 gusting 7 28.3
2020-Aug-14 20:05 027 3 gusting 8 29.0
2020-Aug-14 20:00 025 2 gusting 5 29.1
2020-Aug-14 19:55 028 3 gusting 8 29.0
2020-Aug-14 19:50 024 4 gusting 8 28.7
2020-Aug-14 19:45 023 5 gusting 9 28.9
2020-Aug-14 19:40 022 5 gusting 9 29.1
2020-Aug-14 19:35 030 4 gusting 12 29.0
2020-Aug-14 19:30 027 3 gusting 10 28.6
2020-Aug-14 19:25 030 6 gusting 10 28.9
2020-Aug-14 19:20 022 6 gusting 10 28.9
2020-Aug-14 19:15 023 5 gusting 12 28.9
2020-Aug-14 19:10 019 5 gusting 11 28.7
2020-Aug-14 19:05 015 5 gusting 10 28.6
2020-Aug-14 19:00 014 5 gusting 10 28.5
2020-Aug-14 18:55 014 5 gusting 11 29.2
2020-Aug-14 18:50 020 5 gusting 9 29.6
2020-Aug-14 18:45 027 4 gusting 11 29.5
2020-Aug-14 18:40 018 4 gusting 10 29.6
2020-Aug-14 18:35 020 5 gusting 10 29.1
2020-Aug-14 18:30 021 5 gusting 11 29.1
2020-Aug-14 18:25 020 4 gusting 8 29.5
2020-Aug-14 18:20 020 5 gusting 10 29.8
2020-Aug-14 18:15 018 4 gusting 8 29.7
2020-Aug-14 18:10 024 2 gusting 8 29.6
2020-Aug-14 18:05 027 3 gusting 8 29.2
2020-Aug-14 18:00 029 4 gusting 9 29.3
2020-Aug-14 17:55 024 4 gusting 8 29.3
2020-Aug-14 17:50 027 4 gusting 9 29.2
2020-Aug-14 17:45 020 4 gusting 9 29.2
2020-Aug-14 17:40 029 4 gusting 8 29.0
2020-Aug-14 17:35 024 3 gusting 8 28.9
2020-Aug-14 17:30 030 3 gusting 7 28.8
2020-Aug-14 17:25 022 2 gusting 7 28.7
2020-Aug-14 17:20 028 3 gusting 6 28.7
2020-Aug-14 17:15 029 4 gusting 11 28.4
2020-Aug-14 17:10 028 5 gusting 9 28.5
2020-Aug-14 17:05 023 3 gusting 8 28.6
2020-Aug-14 17:00 019 5 gusting 10 28.3
2020-Aug-14 16:55 015 5 gusting 8 27.8
2020-Aug-14 16:50 012 4 gusting 8 27.8
2020-Aug-14 16:45 026 5 gusting 10 28.6
2020-Aug-14 16:40 023 5 gusting 10 28.4
2020-Aug-14 16:35 034 5 gusting 11 28.5
2020-Aug-14 16:30 018 4 gusting 7 28.7
2020-Aug-14 16:25 022 4 gusting 9 28.5
2020-Aug-14 16:20 025 5 gusting 9 28.3
2020-Aug-14 16:15 019 4 gusting 7 27.8
2020-Aug-14 16:10 012 4 gusting 8 27.6
2020-Aug-14 16:05 017 5 gusting 10 27.5
2020-Aug-14 16:00 013 5 gusting 9 27.3
2020-Aug-14 15:55 024 4 gusting 9 27.7
2020-Aug-14 15:50 026 3 gusting 9 27.4
2020-Aug-14 15:45 037 4 gusting 9 27.6
2020-Aug-14 15:40 019 3 gusting 8 27.6
2020-Aug-14 15:35 020 5 gusting 8 27.9
2020-Aug-14 15:30 024 3 gusting 8 27.5
2020-Aug-14 15:25 029 2 gusting 6 27.7
2020-Aug-14 15:20 025 3 gusting 7 27.8
2020-Aug-14 15:15 023 4 gusting 7 27.8
2020-Aug-14 15:10 029 3 gusting 6 27.5
2020-Aug-14 15:05 027 3 gusting 8 27.7
2020-Aug-14 15:00 033 2 gusting 5 27.6
2020-Aug-14 14:55 031 3 gusting 6 27.1
2020-Aug-14 14:50 031 4 gusting 8 27.0
2020-Aug-14 14:45 018 4 gusting 9 27.1
2020-Aug-14 14:40 017 4 gusting 9 27.3
2020-Aug-14 14:35 015 3 gusting 5 27.1
2020-Aug-14 14:30 022 2 gusting 7 26.8
2020-Aug-14 14:25 016 6 gusting 11 27.0
2020-Aug-14 14:20 020 4 gusting 7 26.8
2020-Aug-14 14:15 037 4 gusting 9 26.7
2020-Aug-14 14:10 028 4 gusting 9 26.6
2020-Aug-14 14:05 031 4 gusting 9 26.7
2020-Aug-14 14:00 012 4 gusting 8 26.6
2020-Aug-14 13:55 023 4 gusting 9 26.3
2020-Aug-14 13:50 034 3 gusting 8 26.1
2020-Aug-14 13:45 026 4 gusting 9 25.8
2020-Aug-14 13:40 021 4 gusting 7 25.4
2020-Aug-14 13:35 026 4 gusting 6 25.0
2020-Aug-14 13:30 019 3 gusting 6 24.9
2020-Aug-14 13:25 024 2 gusting 4 24.9
2020-Aug-14 13:20 030 4 gusting 8 25.0
2020-Aug-14 13:15 033 4 gusting 9 24.8
2020-Aug-14 13:10 022 4 gusting 8 24.7
2020-Aug-14 13:05 023 3 gusting 6 24.7
2020-Aug-14 13:00 030 4 gusting 7 24.7
2020-Aug-14 12:55 029 5 gusting 8 24.9
2020-Aug-14 12:50 021 3 gusting 6 24.7
2020-Aug-14 12:45 019 4 gusting 8 24.4
2020-Aug-14 12:40 029 4 gusting 9 24.2
2020-Aug-14 12:35 024 3 gusting 8 24.1
2020-Aug-14 12:30 024 3 gusting 7 24.0
2020-Aug-14 12:25 022 3 gusting 7 24.0
2020-Aug-14 12:20 027 3 gusting 8 24.0
2020-Aug-14 12:15 027 4 gusting 11 23.9
2020-Aug-14 12:10 038 2 gusting 6 23.8
2020-Aug-14 12:05 032 3 gusting 7 23.7
2020-Aug-14 12:00 025 3 gusting 7 23.7
2020-Aug-14 11:55 031 4 gusting 6 23.6
2020-Aug-14 11:50 028 4 gusting 7 23.5
2020-Aug-14 11:45 029 4 gusting 9 23.5
2020-Aug-14 11:40 025 3 gusting 7 23.4
2020-Aug-14 11:35 031 3 gusting 6 23.4
2020-Aug-14 11:30 019 3 gusting 7 23.3
2020-Aug-14 11:25 027 3 gusting 6 23.3
2020-Aug-14 11:20 030 4 gusting 7 23.3
2020-Aug-14 11:15 032 3 gusting 6 23.2
2020-Aug-14 11:10 028 3 gusting 6 23.2
2020-Aug-14 11:05 027 4 gusting 8 23.2
2020-Aug-14 11:00 024 3 gusting 6 23.1
2020-Aug-14 10:55 020 5 gusting 12 23.1
2020-Aug-14 10:50 023 2 gusting 4 23.0
2020-Aug-14 10:45 027 4 gusting 7 23.0
2020-Aug-14 10:40 020 4 gusting 8 23.0
2020-Aug-14 10:35 025 4 gusting 8 23.0
2020-Aug-14 10:30 016 4 gusting 7 23.0
2020-Aug-14 10:25 017 3 gusting 7 22.9
2020-Aug-14 10:20 028 3 gusting 6 22.9
2020-Aug-14 10:15 028 4 gusting 7 22.9
2020-Aug-14 10:10 032 4 gusting 7 22.9
2020-Aug-14 10:05 013 3 gusting 5 22.9
2020-Aug-14 10:00 013 3 gusting 5 22.8
2020-Aug-14 09:55 010 4 gusting 7 22.8
2020-Aug-14 09:50 021 4 gusting 6 22.8
2020-Aug-14 09:45 019 3 gusting 5 22.8
2020-Aug-14 09:40 018 4 gusting 8 22.9
2020-Aug-14 09:35 021 4 gusting 6 22.9
2020-Aug-14 09:30 017 4 gusting 8 22.9
2020-Aug-14 09:25 013 4 gusting 7 22.9
2020-Aug-14 09:20 018 4 gusting 6 22.8
2020-Aug-14 09:15 020 4 gusting 7 22.8
2020-Aug-14 09:10 020 3 gusting 8 22.7
2020-Aug-14 09:05 025 4 gusting 8 22.7
2020-Aug-14 09:00 024 2 gusting 5 22.8
2020-Aug-14 08:55 031 3 gusting 7 22.7
2020-Aug-14 08:50 035 2 gusting 5 22.8
2020-Aug-14 08:45 025 2 gusting 6 22.8
2020-Aug-14 08:40 036 2 gusting 7 22.9
2020-Aug-14 08:35 025 2 gusting 7 22.9
2020-Aug-14 08:30 029 3 gusting 8 22.8
2020-Aug-14 08:25 047 2 gusting 5 22.8
2020-Aug-14 08:20 028 3 gusting 5 22.8
2020-Aug-14 08:15 023 3 gusting 5 22.8
2020-Aug-14 08:10 016 3 gusting 5 22.8
2020-Aug-14 08:05 021 3 gusting 6 22.8
2020-Aug-14 08:00 015 4 gusting 7 22.8
2020-Aug-14 07:55 019 3 gusting 6 22.9
2020-Aug-14 07:50 017 3 gusting 5 22.9
2020-Aug-14 07:45 021 4 gusting 7 22.9
2020-Aug-14 07:40 016 3 gusting 6 22.9
2020-Aug-14 07:35 018 3 gusting 4 23.0
2020-Aug-14 07:30 014 3 gusting 5 23.0
2020-Aug-14 07:25 012 3 gusting 6 23.0
2020-Aug-14 07:20 017 3 gusting 5 23.0
2020-Aug-14 07:15 013 3 gusting 5 23.0
2020-Aug-14 07:10 025 2 gusting 5 23.0
2020-Aug-14 07:05 023 2 gusting 4 23.0
2020-Aug-14 07:00 013 3 gusting 6 23.0
2020-Aug-14 06:55 019 2 gusting 4 23.0
2020-Aug-14 06:50 019 2 gusting 4 23.0
2020-Aug-14 06:45 017 2 gusting 6 23.0
2020-Aug-14 06:40 020 2 gusting 5 23.0
2020-Aug-14 06:35 020 2 gusting 4 23.0
2020-Aug-14 06:30 019 3 gusting 5 23.0
2020-Aug-14 06:25 007 3 gusting 5 23.0
2020-Aug-14 06:20 016 3 gusting 5 23.0
2020-Aug-14 06:15 017 1 gusting 4 23.0
2020-Aug-14 06:10 029 2 gusting 4 23.0
2020-Aug-14 06:05 018 2 gusting 4 23.0
2020-Aug-14 06:00 022 2 gusting 4 23.0
2020-Aug-14 05:55 015 3 gusting 5 23.0
2020-Aug-14 05:50 017 1 gusting 3 23.1
2020-Aug-14 05:45 015 2 gusting 4 23.1
2020-Aug-14 05:40 023 2 gusting 5 23.1
2020-Aug-14 05:35 027 2 gusting 5 23.1
2020-Aug-14 05:30 029 1 gusting 4 23.0
2020-Aug-14 05:25 025 2 gusting 5 23.0
2020-Aug-14 05:20 029 1 gusting 3 23.0
2020-Aug-14 05:15 029 1 gusting 2 23.0
2020-Aug-14 05:10 036 1 gusting 2 23.0
2020-Aug-14 05:05 021 1 gusting 2 23.0
2020-Aug-14 05:00 020 1 gusting 2 23.0
2020-Aug-14 04:55 024 0 gusting 1 23.1
2020-Aug-14 04:50 016 0 gusting 1 23.1
2020-Aug-14 04:45 005 0 gusting 1 23.2
2020-Aug-14 04:40 020 0 gusting 1 23.2
2020-Aug-14 04:35 025 0 gusting 1 23.3
2020-Aug-14 04:30 031 1 gusting 4 23.2
2020-Aug-14 04:25 030 1 gusting 3 23.2
2020-Aug-14 04:20 025 1 gusting 4 23.1
2020-Aug-14 04:15 018 1 gusting 3 23.1
2020-Aug-14 04:10 014 1 gusting 4 23.0
2020-Aug-14 04:05 016 1 gusting 3 23.0
2020-Aug-14 04:00 018 2 gusting 4 22.9
2020-Aug-14 03:55 024 2 gusting 4 22.9
2020-Aug-14 03:50 018 2 gusting 3 22.9
2020-Aug-14 03:45 021 2 gusting 3 22.9
2020-Aug-14 03:40 022 2 gusting 4 23.0
2020-Aug-14 03:35 025 2 gusting 4 23.0
2020-Aug-14 03:30 025 2 gusting 4 23.0
2020-Aug-14 03:25 028 1 gusting 3 23.0
2020-Aug-14 03:20 022 1 gusting 3 23.1
2020-Aug-14 03:15 024 2 gusting 4 23.0
2020-Aug-14 03:10 023 2 gusting 5 23.1
2020-Aug-14 03:05 022 2 gusting 4 23.1
2020-Aug-14 03:00 020 2 gusting 4 23.0
2020-Aug-14 02:55 023 1 gusting 2 23.1
2020-Aug-14 02:50 022 1 gusting 3 23.1
2020-Aug-14 02:45 023 2 gusting 5 23.2
2020-Aug-14 02:40 024 2 gusting 3 23.2
2020-Aug-14 02:35 022 2 gusting 3 23.2
2020-Aug-14 02:30 017 1 gusting 4 23.3
2020-Aug-14 02:25 016 1 gusting 3 23.3
2020-Aug-14 02:20 036 1 gusting 2 23.3
2020-Aug-14 02:15 013 1 gusting 3 23.3
2020-Aug-14 02:10 022 0 gusting 2 23.3
2020-Aug-14 02:05 030 0 gusting 4 23.4
2020-Aug-14 02:00 025 1 gusting 3 23.4
2020-Aug-14 01:55 012 2 gusting 5 23.4
2020-Aug-14 01:50 012 1 gusting 2 23.4
2020-Aug-14 01:45 020 1 gusting 4 23.5
2020-Aug-14 01:40 001 0 gusting 2 23.4
2020-Aug-14 01:35 052 0 gusting 2 23.4
2020-Aug-14 01:30 202 0 gusting 1 23.4
2020-Aug-14 01:25 063 0 gusting 2 23.2
2020-Aug-14 01:20 108 0 gusting 1 23.2
2020-Aug-14 01:15 23.3
2020-Aug-14 01:10 098 0 gusting 0 23.5
2020-Aug-14 01:05 316 0 gusting 1 23.5
2020-Aug-14 01:00 309 0 gusting 0 23.6
2020-Aug-14 00:55 084 0 gusting 2 23.6
2020-Aug-14 00:50 121 0 gusting 2 23.7
2020-Aug-14 00:45 073 0 gusting 2 23.8
2020-Aug-14 00:40 353 0 gusting 1 23.8
2020-Aug-14 00:35 202 0 gusting 1 23.9
2020-Aug-14 00:30 049 0 gusting 2 24.0
2020-Aug-14 00:25 139 0 gusting 2 24.0
2020-Aug-14 00:20 118 0 gusting 2 24.1
2020-Aug-14 00:15 021 0 gusting 1 24.2
2020-Aug-14 00:10 008 1 gusting 2 24.3
2020-Aug-14 00:05 004 1 gusting 2 24.4
2020-Aug-14 00:00 008 0 gusting 1 24.4
2020-Aug-13 23:55 001 0 gusting 1 24.5
2020-Aug-13 23:50 360 0 gusting 1 24.6
2020-Aug-13 23:45 121 0 gusting 1 24.7
2020-Aug-13 23:40 118 1 gusting 4 24.7
2020-Aug-13 23:35 116 2 gusting 5 24.8
2020-Aug-13 23:30 126 1 gusting 3 25.0
2020-Aug-13 23:25 100 1 gusting 5 25.2
2020-Aug-13 23:20 109 0 gusting 3 25.3
2020-Aug-13 23:15 129 1 gusting 3 25.1
2020-Aug-13 23:10 118 2 gusting 3 25.1
2020-Aug-13 23:05 107 2 gusting 5 25.1
2020-Aug-13 23:00 131 1 gusting 2 24.9
2020-Aug-13 22:55 095 1 gusting 2 24.7
2020-Aug-13 22:50 122 1 gusting 2 24.7
2020-Aug-13 22:45 122 1 gusting 3 24.7
2020-Aug-13 22:40 123 2 gusting 3 24.8
2020-Aug-13 22:35 112 3 gusting 5 24.9
2020-Aug-13 22:30 115 3 gusting 7 25.2
2020-Aug-13 22:25 053 1 gusting 4 25.4
2020-Aug-13 22:20 066 1 gusting 4 25.3
2020-Aug-13 22:15 073 1 gusting 3 25.2
2020-Aug-13 22:10 112 0 gusting 3 25.2
2020-Aug-13 22:05 110 1 gusting 3 25.1
2020-Aug-13 22:00 054 0 gusting 4 25.1
2020-Aug-13 21:55 042 0 gusting 3 25.1
2020-Aug-13 21:50 053 1 gusting 4 25.1
2020-Aug-13 21:45 121 0 gusting 2 25.1
2020-Aug-13 21:40 104 0 gusting 2 25.2
2020-Aug-13 21:35 025 1 gusting 3 25.2
2020-Aug-13 21:30 024 1 gusting 3 25.1
2020-Aug-13 21:25 022 2 gusting 4 25.1
2020-Aug-13 21:20 030 1 gusting 4 25.0
2020-Aug-13 21:15 022 1 gusting 3 25.0
2020-Aug-13 21:10 042 0 gusting 2 25.1
2020-Aug-13 21:05 035 0 gusting 2 25.0
2020-Aug-13 21:00 053 0 gusting 1 24.9
2020-Aug-13 20:55 077 0 gusting 3 24.8
2020-Aug-13 20:50 067 0 gusting 1 24.8
2020-Aug-13 20:45 048 0 gusting 2 24.7
2020-Aug-13 20:40 060 0 gusting 1 24.7
2020-Aug-13 20:35 056 1 gusting 2 24.8
2020-Aug-13 20:30 041 1 gusting 3 24.8
2020-Aug-13 20:25 033 2 gusting 4 24.9
2020-Aug-13 20:20 021 2 gusting 3 25.0
2020-Aug-13 20:15 019 1 gusting 3 24.9
2020-Aug-13 20:10 010 1 gusting 3 24.8
2020-Aug-13 20:05 004 2 gusting 3 24.7
2020-Aug-13 20:00 006 2 gusting 4 24.7
2020-Aug-13 19:55 343 2 gusting 3 24.6
2020-Aug-13 19:50 342 3 gusting 4 24.5
2020-Aug-13 19:45 341 3 gusting 4 24.4
2020-Aug-13 19:40 343 2 gusting 4 24.4
2020-Aug-13 19:35 351 2 gusting 3 24.3
2020-Aug-13 19:30 342 2 gusting 3 24.2
2020-Aug-13 19:25 320 1 gusting 3 24.1
2020-Aug-13 19:20 322 1 gusting 2 24.1
2020-Aug-13 19:15 360 1 gusting 2 23.9
2020-Aug-13 19:10 015 1 gusting 2 23.8
2020-Aug-13 19:05 019 2 gusting 2 23.7
2020-Aug-13 19:00 011 2 gusting 3 23.6
2020-Aug-13 18:55 013 2 gusting 3 23.5
2020-Aug-13 18:50 010 2 gusting 3 23.5
2020-Aug-13 18:45 008 1 gusting 2 23.4
2020-Aug-13 18:40 355 1 gusting 2 23.2
2020-Aug-13 18:35 342 1 gusting 1 23.0
2020-Aug-13 18:30 326 1 gusting 2 22.9
2020-Aug-13 18:25 307 0 gusting 1 22.8
2020-Aug-13 18:20 303 1 gusting 1 22.8
2020-Aug-13 18:15 300 0 gusting 1 22.7
2020-Aug-13 18:10 318 1 gusting 1 22.7
2020-Aug-13 18:05 311 0 gusting 1 22.6
2020-Aug-13 18:00 304 1 gusting 2 22.6
2020-Aug-13 17:55 307 1 gusting 2 22.6
2020-Aug-13 17:50 297 1 gusting 2 22.5
2020-Aug-13 17:45 293 2 gusting 3 22.5
2020-Aug-13 17:40 274 2 gusting 3 22.5
2020-Aug-13 17:35 282 1 gusting 2 22.6
2020-Aug-13 17:30 285 1 gusting 2 22.5
2020-Aug-13 17:25 292 1 gusting 2 22.5
2020-Aug-13 17:20 292 1 gusting 2 22.5
2020-Aug-13 17:15 264 1 gusting 2 22.5
2020-Aug-13 17:10 240 0 gusting 1 22.4
2020-Aug-13 17:05 252 0 gusting 1 22.4
2020-Aug-13 17:00 260 0 gusting 1 22.5
2020-Aug-13 16:55 297 0 gusting 0 22.3
2020-Aug-13 16:50 302 1 gusting 1 22.3
2020-Aug-13 16:45 292 1 gusting 2 22.3
2020-Aug-13 16:40 314 1 gusting 2 22.3
2020-Aug-13 16:35 058 1 gusting 3 22.3
2020-Aug-13 16:30 024 2 gusting 4 22.6
2020-Aug-13 16:25 005 3 gusting 5 22.6
2020-Aug-13 16:20 353 3 gusting 5 22.3
2020-Aug-13 16:15 027 3 gusting 7 22.4
2020-Aug-13 16:10 036 4 gusting 8 22.6
2020-Aug-13 16:05 019 5 gusting 10 22.9
2020-Aug-13 16:00 014 3 gusting 7 23.3
2020-Aug-13 15:55 024 3 gusting 7 23.5
2020-Aug-13 15:50 035 2 gusting 4 23.3
2020-Aug-13 15:45 035 1 gusting 3 23.1
2020-Aug-13 15:40 268 1 gusting 3 23.2
2020-Aug-13 15:35 239 2 gusting 3 23.6
2020-Aug-13 15:30 198 3 gusting 5 24.0
2020-Aug-13 15:25 182 2 gusting 4 24.6
2020-Aug-13 15:20 171 2 gusting 5 25.4
2020-Aug-13 15:15 161 1 gusting 2 25.7
2020-Aug-13 15:10 154 0 gusting 1 25.7
2020-Aug-13 15:05 232 0 gusting 1 25.8
2020-Aug-13 15:00 168 0 gusting 1 25.9
2020-Aug-13 14:55 237 0 gusting 1 25.8
2020-Aug-13 14:50 218 0 gusting 1 25.9
2020-Aug-13 14:45 222 1 gusting 1 25.9
2020-Aug-13 14:40 214 1 gusting 1 25.9
2020-Aug-13 14:35 202 1 gusting 2 26.0
2020-Aug-13 14:30 182 1 gusting 2 26.1
2020-Aug-13 14:25 157 0 gusting 2 26.3
2020-Aug-13 14:20 143 0 gusting 2 26.3
2020-Aug-13 14:15 091 0 gusting 2 26.2
2020-Aug-13 14:10 117 1 gusting 3 26.2
2020-Aug-13 14:05 096 1 gusting 2 26.2
2020-Aug-13 14:00 144 2 gusting 3 26.2
2020-Aug-13 13:55 145 2 gusting 3 26.3
2020-Aug-13 13:50 132 0 gusting 1 26.2
2020-Aug-13 13:45 116 1 gusting 2 26.1
2020-Aug-13 13:40 118 1 gusting 2 26.0
2020-Aug-13 13:35 133 1 gusting 2 26.0
2020-Aug-13 13:30 140 0 gusting 2 26.0
2020-Aug-13 13:25 163 1 gusting 1 25.9
2020-Aug-13 13:20 113 0 gusting 3 25.9
2020-Aug-13 13:15 139 1 gusting 2 25.9
2020-Aug-13 13:10 131 1 gusting 2 25.8
2020-Aug-13 13:05 116 1 gusting 2 25.6
2020-Aug-13 13:00 115 1 gusting 1 25.6
2020-Aug-13 12:55 126 1 gusting 2 25.6
2020-Aug-13 12:50 119 0 gusting 2 25.5
2020-Aug-13 12:45 057 0 gusting 1 25.5
2020-Aug-13 12:40 083 0 gusting 1 25.5
2020-Aug-13 12:35 038 0 gusting 0 25.4
2020-Aug-13 12:30 051 0 gusting 1 25.2
2020-Aug-13 12:25 027 1 gusting 2 25.2
2020-Aug-13 12:20 022 0 gusting 2 25.2
2020-Aug-13 12:15 012 1 gusting 2 25.3
2020-Aug-13 12:10 071 0 gusting 1 25.3
2020-Aug-13 12:05 013 0 gusting 1 25.2
2020-Aug-13 12:00 068 0 gusting 2 25.2
2020-Aug-13 11:55 072 0 gusting 0 25.1
2020-Aug-13 11:50 043 0 gusting 0 25.0
2020-Aug-13 11:45 114 0 gusting 1 24.9
2020-Aug-13 11:40 157 0 gusting 0 24.8
2020-Aug-13 11:35 062 0 gusting 1 24.6
2020-Aug-13 11:30 092 0 gusting 1 24.5
2020-Aug-13 11:25 098 0 gusting 0 24.3
2020-Aug-13 11:20 228 0 gusting 0 24.2
2020-Aug-13 11:15 23.9
2020-Aug-13 11:10 019 0 gusting 0 23.7
2020-Aug-13 11:05 019 0 gusting 0 23.4
2020-Aug-13 11:00 23.3
2020-Aug-13 10:55 23.2
2020-Aug-13 10:50 106 0 gusting 0 23.1
2020-Aug-13 10:45 149 0 gusting 0 23.0
2020-Aug-13 10:40 22.9
2020-Aug-13 10:35 273 0 gusting 0 22.8
2020-Aug-13 10:30 22.6
2020-Aug-13 10:25 22.6
2020-Aug-13 10:20 22.7
2020-Aug-13 10:15 352 0 gusting 0 22.7
2020-Aug-13 10:10 352 0 gusting 0 22.5
2020-Aug-13 10:05 22.5
2020-Aug-13 10:00 22.4
2020-Aug-13 09:55 22.5
2020-Aug-13 09:50 352 0 gusting 0 22.5
2020-Aug-13 09:45 22.6
2020-Aug-13 09:40 353 1 gusting 1 22.6
2020-Aug-13 09:35 339 0 gusting 0 22.4
2020-Aug-13 09:30 22.4
2020-Aug-13 09:25 22.3
2020-Aug-13 09:20 22.3
2020-Aug-13 09:15 320 0 gusting 0 22.4
2020-Aug-13 09:10 320 0 gusting 0 22.2
2020-Aug-13 09:05 320 0 gusting 0 22.2
2020-Aug-13 09:00 320 0 gusting 0 22.3
2020-Aug-13 08:55 22.3
2020-Aug-13 08:50 318 0 gusting 1 22.4
2020-Aug-13 08:45 268 0 gusting 0 22.3
2020-Aug-13 08:40 22.3
2020-Aug-13 08:35 247 0 gusting 0 22.3
2020-Aug-13 08:30 247 0 gusting 0 22.3
2020-Aug-13 08:25 240 0 gusting 0 22.4
2020-Aug-13 08:20 238 0 gusting 0 22.4
2020-Aug-13 08:15 323 0 gusting 0 22.4
2020-Aug-13 08:10 22.3
2020-Aug-13 08:05 22.3
2020-Aug-13 08:00 22.3
2020-Aug-13 07:55 212 0 gusting 1 22.3
2020-Aug-13 07:50 260 0 gusting 0 22.3
2020-Aug-13 07:45 264 0 gusting 0 22.3
2020-Aug-13 07:40 264 0 gusting 0 22.3
2020-Aug-13 07:35 267 0 gusting 0 22.3
2020-Aug-13 07:30 273 0 gusting 0 22.3
2020-Aug-13 07:25 269 0 gusting 0 22.3
2020-Aug-13 07:20 262 0 gusting 0 22.3
2020-Aug-13 07:15 22.4
2020-Aug-13 07:10 262 0 gusting 0 22.4
2020-Aug-13 07:05 268 0 gusting 0 22.4
2020-Aug-13 07:00 273 0 gusting 1 22.4
2020-Aug-13 06:55 237 0 gusting 0 22.4
2020-Aug-13 06:50 252 0 gusting 1 22.5
2020-Aug-13 06:45 326 0 gusting 1 22.5
2020-Aug-13 06:40 166 0 gusting 1 22.4
2020-Aug-13 06:35 22.4
2020-Aug-13 06:30 159 0 gusting 0 22.4
2020-Aug-13 06:25 22.5
2020-Aug-13 06:20 159 0 gusting 0 22.5
2020-Aug-13 06:15 22.6
2020-Aug-13 06:10 22.6
2020-Aug-13 06:05 239 0 gusting 1 22.6
2020-Aug-13 06:00 131 0 gusting 1 22.6
2020-Aug-13 05:55 079 0 gusting 1 22.6
2020-Aug-13 05:50 035 1 gusting 1 22.6
2020-Aug-13 05:45 008 0 gusting 1 22.6
2020-Aug-13 05:40 299 0 gusting 2 22.5
2020-Aug-13 05:35 301 1 gusting 2 22.5
2020-Aug-13 05:30 318 0 gusting 0 22.6
2020-Aug-13 05:25 319 0 gusting 1 22.6
2020-Aug-13 05:20 328 1 gusting 2 22.6
2020-Aug-13 05:15 193 0 gusting 1 22.6
2020-Aug-13 05:10 119 0 gusting 1 22.7
2020-Aug-13 05:05 111 0 gusting 1 22.8
2020-Aug-13 05:00 116 0 gusting 1 22.8
2020-Aug-13 04:55 324 0 gusting 1 22.7
2020-Aug-13 04:50 330 1 gusting 2 22.7
2020-Aug-13 04:45 305 0 gusting 1 22.7
2020-Aug-13 04:40 290 0 gusting 0 22.7
2020-Aug-13 04:35 22.7
2020-Aug-13 04:30 314 0 gusting 1 22.7
2020-Aug-13 04:25 270 0 gusting 1 22.8
2020-Aug-13 04:20 324 0 gusting 1 22.7
2020-Aug-13 04:15 326 1 gusting 1 22.6
2020-Aug-13 04:10 330 0 gusting 1 22.5
2020-Aug-13 04:05 101 0 gusting 1 22.5
2020-Aug-13 04:00 142 1 gusting 1 22.6